LiveATC.Net - Listen to live air traffic control over the Internet!


ICAO: KAUG  IATA: AUG   Airport: Augusta State Airport
City: Augusta   State/Province: Maine
Country: United States   Continent: North America
KAUG METAR Weather: KAUG 050153Z AUTO 36004KT 10SM CLR M04/M08 A3018 RMK AO2 SLP227 T10441083
KAUG Flight Activity (FlightAware)
KAUG Webcam: (Airport Webcams)
KAUG Airport Info   (AirNav) (iFlightPlanner)
KAUG VFR Sectional Chart   (iFlightPlanner) 
KAUG IFR Low Chart   (iFlightPlanner) 
KAUG Portland App/ZBW
Feed Status: UP   Listeners: 0
Listen right in your browser - requires Flash (in browser, requires Flash)
Click here to listen with your own player (launches your MP3 player)
KAUG Portland App/ZBW Audio Archives
FacilityFrequency
Boston Center (Sector 02 Augusta High)134.950
Portland Approach128.350

Sponsored by LiveATC.net and Maine Instrument Flight

ICAO: KBGR  IATA: BGR   Airport: Bangor International Airport
City: Bangor   State/Province: Maine
Country: United States   Continent: North America
KBGR METAR Weather: KBGR 050153Z 31005KT 10SM CLR M04/M08 A3017 RMK AO2 SLP220 T10441078
KBGR Flight Activity (FlightAware)
KBGR Airport Info   (AirNav) (iFlightPlanner)
KBGR VFR Sectional Chart   (iFlightPlanner) 
KBGR IFR Low Chart   (iFlightPlanner) 
KBGR App/ZBW
Feed Status: DOWN
Last heard on: 2016-12-02 10:32:03 (2 days 15 hours 57 minutes ago)
KBGR App/ZBW Audio Archives
FacilityFrequency
Bangor Approach118.925
Bangor Approach124.500
ZBW Sector 01 Millinocket High 128.050
ZBW Sector 15 Surry Low 124.250


ICAO: KBOS  IATA: BOS   Airport: General Edward Lawrence Logan International Airport
City: Boston   State/Province: Massachusetts
Country: United States   Continent: North America
KBOS METAR Weather: KBOS 050154Z 33007KT 10SM FEW220 FEW250 01/M06 A3021 RMK AO2 SLP229 T00111061
KBOS Flight Activity (FlightAware)
KBOS Webcam: (Airport Webcams)
KBOS Airport Info   (AirNav) (iFlightPlanner)
KBOS VFR Sectional Chart   (iFlightPlanner) 
KBOS IFR Low Chart   (iFlightPlanner) 
ZBW Boston Center (BOS46/47/PVD34/CTR07)
Feed Status: UP   Listeners: 1
Listen right in your browser - requires Flash (in browser, requires Flash)
Click here to listen with your own player (launches your MP3 player)
ZBW Boston Center (BOS46/47/PVD34/CTR07) Audio Archives
FacilityFrequency
ZBW BOS46 High (spare)118.425
ZBW BOS46 High (spare)277.400
ZBW BOS47 Low133.425
ZBW BOS47 Low307.900
ZBW CTR07 Low127.650
ZBW CTR07 Low257.925
ZBW PVD34 Low124.850
ZBW PVD34 Low269.200

ZBW Boston Center (CAM39)
Feed Status: UP   Listeners: 2
Listen right in your browser - requires Flash (in browser, requires Flash)
Click here to listen with your own player (launches your MP3 player)
ZBW Boston Center (CAM39) Audio Archives
FacilityFrequency
AWACS/Backup133.625
Boston Center (ALB 22 sector)121.350
Boston Center (ATHENS 38 sector)135.325
Boston Center (CAM 39 sector)128.325

ZBW Boston Center (CANAN21/BOS46)
Feed Status: UP   Listeners: 0
Listen right in your browser - requires Flash (in browser, requires Flash)
Click here to listen with your own player (launches your MP3 player)
ZBW Boston Center (CANAN21/BOS46) Audio Archives
FacilityFrequency
ZBW Boston Center (BOS46 High)126.225
ZBW Boston Center (BOS46 High)370.900
ZBW Boston Center (CANAN21 Low)132.650

ZBW Boston Center (CON37)
Feed Status: UP   Listeners: 0
Listen right in your browser - requires Flash (in browser, requires Flash)
Click here to listen with your own player (launches your MP3 player)
ZBW Boston Center (CON37) Audio Archives
FacilityFrequency
Boston Center (CON37 Sector UHF)269.475
Boston Center (CON37 sector)134.700

ZBW Boston Center (GDM36)
Feed Status: UP   Listeners: 0
Listen right in your browser - requires Flash (in browser, requires Flash)
Click here to listen with your own player (launches your MP3 player)
ZBW Boston Center (GDM36) Audio Archives
FacilityFrequency
Boston Center (GDM 36 sector)123.750

Sponsored by LiveATC.net
ZBW Boston Center (GDM36/CON37)
Feed Status: UP   Listeners: 0
Listen right in your browser - requires Flash (in browser, requires Flash)
Click here to listen with your own player (launches your MP3 player)
ZBW Boston Center (GDM36/CON37) Audio Archives
FacilityFrequency
Boston Center (CON37 Sector UHF)269.475
Boston Center (CON37 sector)134.700
Boston Center (GDM 36 sector)123.750

ZBW Boston Center (MPV52/PLB53)
Feed Status: UP   Listeners: 0
Listen right in your browser - requires Flash (in browser, requires Flash)
Click here to listen with your own player (launches your MP3 player)
ZBW Boston Center (MPV52/PLB53) Audio Archives
FacilityFrequency
ZBW Special Use (AWACS Control)354.100
ZBW52 Montpelier (Low/High)120.350
ZBW52 Montpelier (Low/High)282.200
ZBW52 Montpelier (Low/High)342.250
ZBW52 Montpelier Low/High135.700
ZBW53 Plattsburgh (High)118.825
ZBW53 Plattsburgh (High)251.075

ZBW Boston Center (PARSO16)
Feed Status: UP   Listeners: 0
Listen right in your browser - requires Flash (in browser, requires Flash)
Click here to listen with your own player (launches your MP3 player)
ZBW Boston Center (PARSO16) Audio Archives
FacilityFrequency
Boston Center (PARSO Sector, Low)128.200

ZBW Boston Center (RKA10)
Feed Status: UP   Listeners: 0
Listen right in your browser - requires Flash (in browser, requires Flash)
Click here to listen with your own player (launches your MP3 player)
ZBW Boston Center (RKA10) Audio Archives
FacilityFrequency
Boston Center (Rockdale 10 Sector High FL280-600)124.125

ZBW Boston Center (UCA09/ART08)
Feed Status: UP   Listeners: 0
Listen right in your browser - requires Flash (in browser, requires Flash)
Click here to listen with your own player (launches your MP3 player)
ZBW Boston Center (UCA09/ART08) Audio Archives
FacilityFrequency
Boston Center (Utica 09 Sector)123.875
Boston Center (Watertown 08 Sector)135.250


ICAO: KHUL  IATA: HUL   Airport: Houlton International Airport
City: Houlton   State/Province: Maine
Country: United States   Continent: North America
KHUL METAR Weather: KHUL 050153Z AUTO 34003KT 10SM CLR M09/M11 A3011 RMK AO2 SLP206 I1000 T10891106
KHUL Flight Activity (FlightAware)
KHUL Airport Info   (AirNav) (iFlightPlanner)
KHUL VFR Sectional Chart   (iFlightPlanner) 
KHUL IFR Low Chart   (iFlightPlanner) 
KHUL/KPQI/ZBW01/15
Feed Status: UP   Listeners: 0
Listen right in your browser - requires Flash (in browser, requires Flash)
Click here to listen with your own player (launches your MP3 player)
KHUL/KPQI/ZBW01/15 Audio Archives
FacilityFrequency
Boston Center (Sector 01 Millinocket High Sector)128.050
Boston Center (Sector 01 Millinocket High Sector)319.100
Boston Center (Surry 15 Low Sector)120.250
Boston Center (Surry 15 Low Sector)346.400
Emergency/Guard121.500
Houlton CTAF/UNICOM122.800
Presque Isle CTAF/UNICOM122.800


ICAO: KHYA  IATA: HYA   Airport: Barnstable Municipal Airport-Boardman/Polando Field
City: Hyannis   State/Province: Massachusetts
Country: United States   Continent: North America
KHYA METAR Weather: KHYA 050156Z 00000KT 10SM CLR M01/M06 A3018 RMK AO2 SLP220 T10111061
KHYA Flight Activity (FlightAware)
KHYA Airport Info   (AirNav) (iFlightPlanner)
KHYA VFR Sectional Chart   (iFlightPlanner) 
KHYA IFR Low Chart   (iFlightPlanner) 
ZBW ACK17/CAPE18
Feed Status: UP   Listeners: 0
Listen right in your browser - requires Flash (in browser, requires Flash)
Click here to listen with your own player (launches your MP3 player)
ZBW ACK17/CAPE18 Audio Archives
FacilityFrequency
Boston Center (ACK17 Sector)133.450
Boston Center (CAPE18 Sector)128.750
Emergency/Guard121.500


ICAO: KJFK  IATA: JFK   Airport: John F Kennedy International Airport
City: New York   State/Province: New York
Country: United States   Continent: North America
KJFK METAR Weather: KJFK 050151Z 07005KT 10SM BKN170 BKN250 04/M05 A3019 RMK AO2 SLP222 T00441050 $
KJFK Flight Activity (FlightAware)
KJFK Airport Info   (AirNav) (iFlightPlanner)
KJFK VFR Sectional Chart   (iFlightPlanner) 
KJFK IFR Low Chart   (iFlightPlanner) 
ZBW Boston Center (CLIPR32/HTO31)
Feed Status: UP   Listeners: 0
Listen right in your browser - requires Flash (in browser, requires Flash)
Click here to listen with your own player (launches your MP3 player)
ZBW Boston Center (CLIPR32/HTO31) Audio Archives
FacilityFrequency
Boston Center (CLIPR32 Sector)135.800
Boston Center (HTO31 Sector)124.525
Emergency/Guard121.500

ZBW Boston Center (DXR19/SOUTHIE49)
Feed Status: UP   Listeners: 0
Listen right in your browser - requires Flash (in browser, requires Flash)
Click here to listen with your own player (launches your MP3 player)
ZBW Boston Center (DXR19/SOUTHIE49) Audio Archives
FacilityFrequency
Boston Center (DANBURY 19 Sector)134.000
Boston Center (SOUTHIE49 Sector)132.300

ZBW/ZNY/ZDC (JFK Area) #1
Feed Status: UP   Listeners: 0
Listen right in your browser - requires Flash (in browser, requires Flash)
Click here to listen with your own player (launches your MP3 player)
ZBW/ZNY/ZDC (JFK Area) #1 Audio Archives
FacilityFrequency
Boston Center (IGN20 Sector 20 Kingston High)125.575
New York Center (Sector 42 East Texas High)127.175
New York Center (Sector 56 Kennedy High backup)128.675
New York Center (Sector 56 Kennedy High backup)134.375
New York Center (Sector 56 Kennedy High)125.325
Washington Center (Sector 10 BAY High)132.275
Washington Center (Sector 12 High)126.875
Washington Center (Sector 18 DUPONT High)132.525
Washington Center (Sector 19 Woodstown High)125.450


ICAO: KPQI  IATA: PQI   Airport: Northern Maine Regional Airport at Presque Isle
City: Presque Isle   State/Province: Maine
Country: United States   Continent: North America
KPQI METAR Weather: KPQI 050156Z AUTO 00000KT 10SM CLR M14/M16 A3014 RMK AO2 SLP253 T11441161 FZRANO
KPQI Flight Activity (FlightAware)
KPQI Airport Info   (AirNav) (iFlightPlanner)
KPQI VFR Sectional Chart   (iFlightPlanner) 
KPQI IFR Low Chart   (iFlightPlanner) 
KHUL/KPQI/ZBW01/15
Feed Status: UP   Listeners: 0
Listen right in your browser - requires Flash (in browser, requires Flash)
Click here to listen with your own player (launches your MP3 player)
KHUL/KPQI/ZBW01/15 Audio Archives
FacilityFrequency
Boston Center (Sector 01 Millinocket High Sector)128.050
Boston Center (Sector 01 Millinocket High Sector)319.100
Boston Center (Surry 15 Low Sector)120.250
Boston Center (Surry 15 Low Sector)346.400
Emergency/Guard121.500
Houlton CTAF/UNICOM122.800
Presque Isle CTAF/UNICOM122.800


ICAO: KSWF  IATA: SWF   Airport: Stewart International Airport
City: Newburgh   State/Province: New York
Country: United States   Continent: North America
KSWF METAR Weather: KSWF 050145Z 05007KT 10SM OVC120 00/M04 A3019
KSWF Flight Activity (FlightAware)
KSWF Airport Info   (AirNav) (iFlightPlanner)
KSWF VFR Sectional Chart   (iFlightPlanner) 
KSWF IFR Low Chart   (iFlightPlanner) 
ZBW Boston Center (SWF05)
Feed Status: UP   Listeners: 0
Listen right in your browser - requires Flash (in browser, requires Flash)
Click here to listen with your own player (launches your MP3 player)
ZBW Boston Center (SWF05) Audio Archives
FacilityFrequency
Boston Center (Stewart 05 Sector)134.300

Sponsored by LiveATC.net and Poughkeepsie Pilots Association

NOTICE

Unauthorized use prohibited. See LiveATC.net Terms of Service


Find LiveATC Audio Streams


Airport/ARTCC Code

Frequency
(e.g., 124.400, 128.75)
Site-wide search

Browse LiveATC Feeds
LiveATC Coverage Map
Top 50 LiveATC Feeds
Bad Weather Areas

LiveATC FAQ
Offer a LiveATC Feed
Contact LiveATC.net
Press Inquiries

LiveATC on iPhone
LiveATC on Android

Windows Phone
Windows 8/10

LiveATC Mobile
(Mobile browser)

ATC Audio Archives
Interesting Recordings

LiveATC Forums


Home Page
About LiveATC.net
Make a Donation
LiveATC Store

Terms of Use
Privacy Policy

Canadian Air Freqs

AIRMETs/SIGMETs

FAA Airport Status
Nat'l Airspace Status
Arrival Demand Charts


Server Software By:
Icecast.org
Liquidsoap